Location: Marcé
(47.5801°N, 0.3280°W)
Time: 15:47:43
(UTC+01:00)

SR - Pass Details

Date: 03 December 2021
Orbit: 582 x 872 km, 66.7° (Epoch: 22 January)

Event Time Altitude Azimuth Distance (km) Brightness Sun altitude
Rises 10:02:58 0° 317° (NW) 2,826 ? 10.7°
Reaches altitude 10° 10:05:21 10° 306° (NW) 1,938 ? 10.9°
Maximum altitude 10:09:08 30° 246° (WSW) 1,116 ? 11.3°
Drops below altitude 10° 10:13:04 10° 185° (S) 2,025 ? 11.7°
Sets 10:15:37 0° 175° (S) 2,977 ? 12.0°
